Hourly Data Report for April 23, 2016

MIRAMICHI RCS
NEW BRUNSWICK

47°00'34.000" N
65°27'54.000" W
33.00 m
8100989
71744
ACQ

Download Data

Hourly Data (April 2016)
Hourly Data Report for April 23, 2016
TIME
LST
Temp Definition
°C
Dew Point Definition
°C
Rel Hum Definition
%
Precip. Amount Definition
mm

Wind Dir Definition
10's deg

Wind Spd Definition
km/h
Visibility Definition
km
Stn Press Definition
kPa
Hmdx Definition


Wind Chill Definition


Weather Definition


00:00 6.7 3.6 81 0.0 5 11   100.54     LegendNANA
01:00 6.5 3.2 80 0.0 5 14   100.48     LegendNANA
02:00 6.3 3.3 81 0.0 6 10   100.47     LegendNANA
03:00 6.2 3.4 83 0.0 6 10   100.44     LegendNANA
04:00 5.8 3.3 84 0.0 1 5   100.41     LegendNANA
05:00 5.3 3.4 88 0.0 6 13   100.36     LegendNANA
06:00 5.3 3.5 88 0.0 4 8   100.38     LegendNANA
07:00 5.7 3.3 85 0.0 2 6   100.42     LegendNANA
08:00 6.3 3.4 82 0.0 4 6   100.42     LegendNANA
09:00 6.7 3.6 80 0.0 6 7   100.45     LegendNANA
10:00 7.4 4.8 84 0.0 34 4   100.46     LegendNANA
11:00 8.2 5.6 84 0.0 33 7   100.46     LegendNANA
12:00 8.9 5.6 80 0.0 33 8   100.44     LegendNANA
13:00 9.2 5.2 76 0.0 35 7   100.45     LegendNANA
14:00 10.1 5.7 74 0.0 35 7   100.43     LegendNANA
15:00 8.4 5.7 84 0.2 31 8   100.45     LegendNANA
16:00 8.1 5.2 82 0.4 32 8   100.45     LegendNANA
17:00 7.4 5.2 86 0.2 32 3   100.50     LegendNANA
18:00 8.1 3.7 74 0.0 32 10   100.50     LegendNANA
19:00 7.3 1.5 67 0.0 32 12   100.54     LegendNANA
20:00 6.3 0.6 67 0.0 32 14   100.61     LegendNANA
21:00 5.5 -0.6 65 0.0 32 15   100.65     LegendNANA
22:00 5.1 -1.5 62 0.0 32 15   100.62     LegendNANA
23:00 4.8 -2.8 58 0.0 32 15   100.61     LegendNANA

Notes on Data Quality.

Legend

  • E = Estimated
  • M = Missing
  • NA = Not Available*
  • [empty] = Indicates an unobserved value
Date modified: